Weather History for Fort Campbell, KY

Change the Weather History Date:

Sunday, February 3, 2013

  Actual Average Record
Temperature  
Mean Temperature 34 °F -  
Max Temperature 41 °F 46 °F 61 °F (2012)
Min Temperature 26 °F 29 °F 14 °F (2007)
Degree Days  
Heating Degree Days 31    
Moisture  
Dew Point 29 °F    
Average Humidity 77    
Maximum Humidity 98    
Minimum Humidity 52    
Precipitation  
Precipitation 0.00 in - - ()
Sea Level Pressure  
Sea Level Pressure 30.12 in    
Wind  
Wind Speed 8 mph (NW)    
Max Wind Speed 16 mph    
Max Gust Speed 23 mph    
Visibility 10 miles    
Events Snow    
Averages and records for this station are not official NWS values.
T = Trace of Precipitation, MM = Missing Value Source: NWS Daily Summary

Daily Weather History Graph

Daily Weather History Graph

Search for Another Location

Airport:

Trip Planner

Search our weather history database for the weather conditions in past years. The results will help you decide how hot, cold, wet, or windy it might be!

Date:

Astronomy

Feb. 03, 2013 Rise Set
Actual Time 6:49 AM CST 5:18 PM CST
Civil Twilight 6:22 AM CST 5:45 PM CST
Nautical Twilight 5:52 AM CST 6:16 PM CST
Astronomical Twilight 5:21 AM CST 6:46 PM CST
Moon 12:16 AM CST (2/3) 10:56 AM CST (2/3)
Length of Visible Light 11h 22m
Length of Day
10h 28m
Waning Gibbous, 48% of the Moon is Illuminated
Feb 3
Waning Gibbous
Feb 10
New
Feb 17
First Quarter
Feb 25
Full
Mar 4
Last Quarter

Hourly Weather History & Observations

Time (CST) Temp. Windchill Dew Point Humidity Pressure Visibility Wind Dir Wind Speed Gust Speed Precip Events Conditions
12:55 AM 32.7 °F 28.3 °F 29.7 °F 88% 30.09 in 10.0 mi SW 4.6 mph - N/A   Scattered Clouds
1:55 AM 33.4 °F 28.1 °F 31.3 °F 92% 30.09 in 10.0 mi SW 5.8 mph - N/A   Overcast
2:08 AM 33.8 °F 29.6 °F 32.0 °F 93% 30.09 in 10.0 mi WSW 4.6 mph - N/A   Overcast
2:55 AM 35.4 °F 29.7 °F 30.6 °F 82% 30.05 in 10.0 mi South 6.9 mph - 0.00 in Snow Light Snow
3:10 AM 35.6 °F 29.9 °F 30.2 °F 81% 30.05 in 10.0 mi SSW 6.9 mph - N/A   Overcast
3:55 AM 35.1 °F 31.0 °F 31.3 °F 86% 30.02 in 10.0 mi South 4.6 mph - 0.00 in   Overcast
4:55 AM 33.4 °F 30.4 °F 32.0 °F 94% 30.02 in 10.0 mi NNE 3.5 mph - N/A   Mostly Cloudy
5:55 AM 31.6 °F 27.0 °F 31.1 °F 98% 30.02 in 10.0 mi West 4.6 mph - N/A   Clear
6:55 AM 33.4 °F 25.4 °F 32.2 °F 95% 30.05 in 10.0 mi West 10.4 mph - N/A   Clear
7:55 AM 36.7 °F 28.9 °F 33.1 °F 87% 30.07 in 10.0 mi West 11.5 mph - N/A   Clear
8:55 AM 39.6 °F 31.3 °F 32.5 °F 76% 30.08 in 10.0 mi WNW 15.0 mph 23.0 mph N/A   Clear
9:55 AM 41.2 °F 33.0 °F 29.1 °F 62% 30.10 in 10.0 mi WNW 16.1 mph 23.0 mph N/A   Partly Cloudy
10:55 AM 40.1 °F 32.0 °F 28.8 °F 64% 30.13 in 10.0 mi NW 15.0 mph 20.7 mph N/A   Overcast
11:26 AM 37.4 °F 28.9 °F 30.2 °F 75% 30.14 in 10.0 mi NNW 13.8 mph 23.0 mph N/A   Overcast
11:32 AM 37.4 °F 28.9 °F 30.2 °F 75% 30.14 in 10.0 mi NNW 13.8 mph 23.0 mph N/A   Overcast
11:38 AM 39.2 °F 31.2 °F 30.2 °F 70% 30.14 in 10.0 mi NNW 13.8 mph 23.0 mph N/A   Overcast
11:41 AM 37.4 °F 29.3 °F 30.2 °F 75% 30.14 in 10.0 mi NW 12.7 mph 23.0 mph N/A   Overcast
11:46 AM 37.4 °F 29.8 °F 30.2 °F 75% 30.14 in 10.0 mi NNW 11.5 mph - N/A   Overcast
11:48 AM 37.4 °F 30.3 °F 30.2 °F 75% 30.14 in 10.0 mi NNW 10.4 mph - N/A   Overcast
11:55 AM 39.0 °F 31.8 °F 30.7 °F 72% 30.14 in 10.0 mi NNW 11.5 mph - N/A   Overcast
12:55 PM 38.7 °F 30.9 °F 29.5 °F 70% 30.15 in 10.0 mi NNW 12.7 mph 19.6 mph N/A   Overcast
1:55 PM 39.2 °F 32.0 °F 27.3 °F 62% 30.15 in 10.0 mi NNW 11.5 mph - N/A   Overcast
2:55 PM 40.1 °F 32.7 °F 27.9 °F 62% 30.15 in 10.0 mi NW 12.7 mph 19.6 mph N/A   Mostly Cloudy
3:55 PM 41.0 °F 34.3 °F 24.6 °F 52% 30.15 in 10.0 mi WNW 11.5 mph - N/A   Clear
4:55 PM 39.7 °F 34.3 °F 23.5 °F 52% 30.17 in 10.0 mi NW 8.1 mph - N/A   Clear
5:55 PM 35.6 °F 32.8 °F 23.7 °F 62% 30.17 in 10.0 mi North 3.5 mph - N/A   Clear
6:55 PM 32.7 °F 27.3 °F 23.7 °F 69% 30.19 in 10.0 mi North 5.8 mph - N/A   Clear
7:55 PM 29.5 °F 24.5 °F 24.4 °F 81% 30.19 in 10.0 mi ENE 4.6 mph - N/A   Clear
8:55 PM 29.1 °F - 24.6 °F 83% 30.20 in 10.0 mi Calm Calm - N/A   Clear
9:55 PM 28.4 °F - 23.9 °F 83% 30.18 in 10.0 mi Calm Calm - N/A   Clear
10:55 PM 27.3 °F 22.0 °F 23.4 °F 85% 30.17 in 10.0 mi ESE 4.6 mph - N/A   Clear
11:55 PM 26.8 °F 20.2 °F 23.4 °F 87% 30.15 in 10.0 mi ESE 5.8 mph - N/A   Clear